RH
59 62 66 63 61 66 61 64 67 67 65 64 61 60 59 61 66 72 70 62 70 70 61 61 68 60 38 36 36 35 35 36 35 31 33 44 56 55 44 47 45 45 39
54 63 64 65 64 61 65 63 65 68 70 68 65 65 61 59 66 70 69 59 66 70 66 65 65 51 67 60 40 58 46 47 37 59 46 40 59 55 56 58 45 32 34
50 51 58 63 64 67 67 68 65 69 69 65 67 69 66 61 63 65 67 65 62 64 63 66 63 62 66 48 53 46 44 48 51 42 40 42 40 45 55 59 56 54 38
38 46 58 65 66 62 66 70 68 68 70 69 70 70 67 64 61 59 62 65 65 61 61 60 61 60 62 65 59 65 58 53 57 47 40 38 44 50 48 44 49 57 44
44 47 56 64 66 67 68 69 69 68 68 70 70 68 66 60 50 63 62 64 69 66 63 60 59 61 69 66 50 67 73 62 45 46 45 40 41 42 54 43 46 49 69
47 51 58 64 68 70 70 70 71 70 70 71 70 69 68 51 60 73 68 60 65 69 69 67 63 76 77 81 79 79 76 80 77 43 42 48 62 51 47 45 48 48 51
52 55 60 64 69 71 68 71 74 74 70 73 72 70 70 68 74 77 81 59 61 67 72 69 61 52 75 67 88 90 87 85 79 74 69 71 63 64 64 68 73 73 56
58 57 61 65 67 70 71 73 76 71 73 74 73 72 70 65 82 82 82 65 64 66 69 70 70 68 71 74 77 81 79 75 77 59 65 67 67 69 73 73 75 79 74
56 60 60 62 67 70 74 74 73 70 70 69 67 72 74 70 90 88 86 60 61 67 67 70 70 74 80 89 77 84 84 75 75 88 85 89 92 89 76 59 78 81 68
55 57 58 61 66 70 71 74 70 69 65 54 60 66 74 72 89 92 86 57 68 63 70 78 86 76 90 93 83 85 89 87 71 78 78 88 87 84 93 73 82 86 56
45 48 56 62 68 69 72 71 71 70 67 72 72 67 73 76 78 97 95 84 80 93 60 62 64 92 99 98 94 94 94 84 83 78 72 69 72 75 67 67 65 52 45
52 49 58 65 55 51 72 69 72 76 80 78 80 77 74 79 90 94 98 88 84 68 64 58 74 99 100 100 100 100 99 93 79 76 72 74 70 70 65 59 63 56 42
56 60 62 65 61 60 71 74 66 73 60 68 62 63 61 58 54 98 99 97 93 84 74 91 100 100 100 100 100 99 100 90 90 92 75 69 66 58 62 62 61 64 63
63 62 60 64 68 64 53 57 56 54 58 55 53 52 43 33 57 80 82 96 99 99 99 99 98 97 96 98 99 100 100 98 94 88 69 65 62 54 50 45 44 44 41
57 57 60 55 66 62 62 58 51 55 55 50 50 48 47 58 92 100 100 99 99 99 99 99 98 98 98 98 97 98 99 99 97 84 63 61 54 50 43 42 40 40 41
59 54 50 46 56 59 67 80 100 96 100 100 100 81 74 93 100 100 100 100 100 100 99 97 97 89 90 94 97 98 99 97 89 65 57 52 49 44 43 44 41 40 40
58 65 56 63 63 67 66 64 79 99 100 100 100 100 100 100 100 100 100 100 100 100 96 89 68 66 71 88 95 97 98 97 77 55 55 51 45 43 46 46 45 41 38
72 95 61 66 61 58 58 62 65 70 71 73 96 96 100 100 100 100 100 100 97 90 52 59 83 88 95 97 98 93 90 80 64 59 54 48 45 45 50 44 41 41 36
81 82 83 80 75 78 69 66 66 71 71 74 78 90 96 100 100 100 100 84 92 91 90 95 98 98 98 97 94 76 70 65 61 55 50 48 45 43 43 39 36 54 44
83 96 83 81 86 87 79 74 80 75 74 77 78 71 93 96 98 99 97 97 98 97 92 91 94 96 98 94 71 63 61 61 57 52 50 45 42 38 35 34 30 28 28
70 81 91 77 76 77 77 78 72 62 56 61 64 84 100 74 82 93 92 96 96 97 94 96 94 86 73 64 60 57 53 50 48 45 42 43 40 34 31 28 22 22 21
56 62 60 53 48 48 50 51 56 61 71 73 86 94 100 89 76 81 87 84 83 80 76 70 59 54 54 54 50 45 45 44 44 41 40 36 35 31 27 23 22 21 21
45 44 48 52 55 70 59 65 74 76 71 63 73 85 90 87 86 86 78 67 60 53 50 51 51 45 43 42 40 42 41 38 38 37 37 36 33 27 25 24 22 22 22
44 44 47 51 51 47 45 47 59 81 70 74 78 70 53 55 52 49 47 49 54 49 44 41 38 37 40 38 37 35 34 33 34 36 36 32 27 32 25 24 22 23 24
45 55 52 53 54 52 50 48 55 72 77 77 69 52 44 41 42 41 43 41 39 39 37 34 33 37 38 37 34 32 66 63 42 43 30 31 29 34 25 23 22 23 25
47 53 59 59 59 65 66 75 76 69 65 83 66 61 49 40 38 37 36 36 35 33 33 31 33 33 35 31 32 64 82 78 44 60 30 28 29 29 25 26 26 22 25
Wind_Speed
22 21 19 19 21 19 18 18 17 16 14 16 14 15 15 14 14 14 13 12 14 13 12 11 12 9 8 8 7 7 6 6 6 4 3 7 6 7 4 5 6 6 5
21 20 21 20 20 20 20 20 18 18 17 16 16 16 16 16 15 16 17 15 16 16 15 13 14 11 12 8 8 7 7 6 7 6 4 6 8 8 7 8 7 7 4
22 23 21 21 21 21 21 20 20 19 18 19 17 17 17 17 17 18 17 17 17 16 16 16 15 14 13 10 10 9 9 7 7 9 7 7 6 7 8 8 7 8 5
24 23 22 22 23 21 20 20 20 19 19 19 18 18 19 18 18 19 18 17 17 17 17 17 16 16 15 14 12 11 9 8 9 8 8 7 7 7 6 7 9 7 9
21 22 23 21 19 19 19 19 19 19 19 19 19 19 19 19 17 19 19 18 18 18 17 18 17 17 17 16 12 13 11 11 9 9 9 8 7 8 8 8 8 7 3
19 22 20 19 19 20 19 19 19 19 19 19 20 20 20 18 21 21 21 18 18 18 17 17 16 17 15 15 14 12 10 10 11 10 9 9 6 6 8 8 7 10 7
19 18 18 18 19 19 18 18 20 20 18 20 20 21 21 21 18 22 23 18 18 18 18 16 17 14 16 16 13 8 14 17 14 11 11 7 7 7 9 8 9 5 10
19 19 18 18 18 17 18 20 20 18 20 19 19 20 19 18 16 20 22 23 19 17 18 18 17 17 17 18 17 20 19 14 15 14 13 11 10 7 9 9 8 8 8
19 21 20 19 19 18 20 21 16 16 16 16 16 17 18 16 11 13 17 21 21 18 16 18 18 18 17 22 20 19 16 15 13 13 5 6 10 5 4 7 6 6 6
21 21 18 18 18 20 18 16 14 15 16 14 17 16 16 15 11 14 16 14 13 9 15 18 23 22 22 28 21 16 14 11 13 14 11 7 9 8 6 9 6 6 7
17 17 16 16 17 16 14 14 14 15 13 15 15 14 14 16 17 20 23 16 15 15 17 14 14 18 12 25 27 14 14 11 12 10 11 11 11 11 8 9 10 7 5
14 15 15 15 14 14 14 14 14 14 14 15 15 14 16 24 26 23 27 25 22 19 19 15 12 14 11 6 9 15 14 13 11 10 10 9 10 9 9 10 9 6 2
13 14 14 14 15 12 14 14 13 15 14 15 15 14 14 14 9 18 24 26 28 19 15 8 14 16 18 16 11 15 23 8 8 10 10 10 8 8 9 8 8 6 4
13 13 13 14 14 14 12 12 13 13 13 13 13 14 14 12 8 6 8 10 13 6 12 10 12 15 17 13 14 12 5 6 8 9 11 9 7 9 8 9 7 7 7
13 12 13 12 13 12 6 4 10 11 8 10 11 11 11 10 5 10 12 9 9 11 11 11 11 10 10 10 8 11 12 14 11 10 10 9 9 9 10 8 6 5 7
11 10 10 9 11 8 8 5 15 13 13 11 7 5 2 8 10 9 10 12 16 19 9 10 9 12 13 11 12 10 10 13 10 11 10 11 10 10 8 7 6 7 7
6 7 7 6 7 8 7 7 5 8 17 20 16 13 7 12 11 13 13 14 13 8 3 8 10 11 12 11 10 12 11 9 12 12 9 10 10 9 9 7 7 7 7
9 8 7 7 7 6 6 6 8 8 9 8 11 11 12 11 11 12 13 7 4 5 6 5 5 6 5 6 5 7 8 13 10 9 10 10 10 9 8 8 7 7 6
8 7 7 7 7 7 6 6 7 6 6 6 5 5 8 12 11 8 7 6 5 5 2 5 5 6 5 7 9 10 11 11 10 10 10 9 9 9 9 8 7 1 2
10 10 9 7 7 7 7 7 6 6 6 4 4 4 5 4 2 2 3 4 4 3 4 6 7 7 6 6 7 8 9 10 10 10 10 10 9 8 9 9 7 9 8
7 8 7 7 7 6 6 5 6 5 2 0 2 3 5 7 8 7 6 5 5 4 5 5 5 7 8 9 10 10 11 11 11 10 9 8 8 9 8 7 7 7 6
9 8 7 6 6 6 7 5 5 5 4 4 5 5 4 1 5 6 6 6 6 7 7 9 8 8 9 10 10 10 10 10 9 9 9 9 9 8 8 8 8 7 7
8 9 9 7 7 6 8 7 5 4 4 5 5 7 6 5 5 7 9 9 9 9 8 8 7 7 7 7 7 8 8 9 9 8 9 9 9 9 9 8 7 7 6
10 9 8 8 6 8 5 7 8 6 4 5 4 5 7 10 8 7 7 9 7 8 8 8 8 10 9 7 5 6 6 7 7 8 10 10 10 9 9 8 7 7 7
9 8 7 7 8 8 7 8 9 8 5 1 3 3 5 6 6 7 8 8 9 10 10 9 8 11 10 9 8 7 12 9 6 8 9 10 11 12 8 7 7 7 7
13 12 10 8 9 9 8 9 8 8 7 5 5 5 4 4 5 6 6 8 8 9 10 8 10 10 11 9 10 15 8 8 9 5 8 9 10 9 8 7 10 7 8
Wind_Direction
203 205 207 207 209 210 213 212 215 213 214 213 206 211 214 214 211 211 223 218 210 213 213 206 210 218 219 216 222 230 227 230 237 217 245 162 212 241 207 213 218 234 224
205 203 203 204 206 209 210 212 209 211 210 209 209 206 210 213 211 212 214 215 212 213 209 211 212 208 217 225 213 224 231 230 249 229 223 211 217 205 236 229 238 234 253
204 205 208 207 206 210 208 209 209 208 207 209 209 207 208 211 212 214 216 217 216 216 213 211 211 211 209 214 219 204 220 222 222 262 233 218 237 213 211 235 240 243 249
202 207 208 207 208 207 208 208 208 208 208 207 208 208 209 210 214 218 217 221 220 218 217 216 212 212 215 211 204 217 213 208 215 235 245 234 213 228 237 250 212 207 234
200 204 208 209 210 208 210 209 210 209 210 209 207 209 211 212 214 214 217 215 217 218 215 215 214 214 210 210 206 205 204 208 220 216 237 237 229 227 230 237 241 264 253
201 206 206 205 205 207 208 207 209 212 212 212 213 211 213 217 213 203 210 215 215 214 214 212 219 204 207 199 209 195 201 199 220 229 231 237 239 239 251 257 246 252 267
212 207 207 206 207 207 207 208 212 212 211 215 215 215 216 220 208 197 199 219 217 213 210 209 209 214 206 210 204 224 215 217 225 214 224 265 247 224 254 239 251 246 259
204 208 207 205 207 205 207 212 212 210 214 215 216 219 222 222 205 200 193 214 225 219 213 215 213 209 199 204 200 206 212 215 227 237 225 206 234 236 230 241 243 251 269
206 208 206 203 204 202 209 212 209 213 217 222 225 225 232 239 206 199 195 217 228 227 217 216 213 215 196 190 200 206 211 215 207 228 227 127 113 139 204 215 211 247 260
206 208 203 203 204 207 209 209 208 212 217 220 222 225 229 240 213 190 199 235 239 255 236 220 209 210 191 180 198 204 205 203 217 190 198 146 148 158 162 226 232 232 236
208 207 205 205 206 208 206 206 204 208 212 209 214 220 208 215 220 188 182 200 209 232 245 229 225 212 180 180 197 201 208 168 186 187 201 200 176 172 190 210 232 258 264
207 204 201 200 202 202 206 202 205 205 208 210 216 211 222 198 211 202 157 198 210 222 238 231 230 183 123 187 238 280 183 172 169 195 195 195 173 188 187 188 202 225 239
199 199 196 195 199 209 191 198 199 202 216 211 220 226 240 237 218 147 157 191 211 226 236 203 108 118 147 174 139 345 168 166 169 194 186 193 184 188 151 158 172 183 208
186 191 194 192 190 195 190 194 204 204 209 223 225 228 242 240 230 171 189 199 225 149 121 141 155 145 146 156 143 144 129 232 193 179 195 181 174 139 167 182 173 189 222
184 183 189 187 183 182 176 223 210 215 218 220 227 239 249 247 215 157 168 176 188 181 154 144 148 154 165 180 173 183 163 160 194 200 183 163 166 169 186 170 191 194 230
167 175 180 170 166 167 168 130 52 28 38 31 31 319 43 47 119 136 156 164 163 162 166 156 176 179 177 179 167 172 169 153 181 174 181 166 170 181 174 166 195 218 230
153 134 141 136 151 158 165 181 133 45 54 45 32 49 101 144 142 161 162 153 163 166 169 197 191 186 183 175 175 170 156 161 177 180 171 168 173 179 161 176 204 219 218
103 76 124 128 132 142 135 136 136 137 119 112 48 47 52 63 87 95 91 97 127 247 232 200 173 169 142 148 168 175 160 161 177 167 170 173 176 172 175 206 204 213 217
89 95 99 106 105 104 109 104 108 115 118 131 140 82 58 57 51 76 145 151 164 226 156 123 114 124 151 163 184 173 169 158 165 165 171 173 176 186 192 203 197 348 212
75 71 93 104 111 114 119 127 120 139 146 162 203 182 126 126 124 136 200 149 142 142 172 162 148 147 159 184 177 151 143 154 164 174 173 181 180 192 196 201 198 177 202
88 72 65 104 110 115 119 142 174 211 120 185 178 155 172 172 167 182 172 157 164 139 152 163 163 172 170 160 158 162 159 172 176 182 176 176 181 199 194 186 188 203 190
113 120 126 121 113 102 90 88 81 83 117 110 110 121 162 168 185 173 176 173 184 191 188 177 173 161 159 166 166 172 170 174 177 177 176 180 183 193 186 186 193 193 173
101 104 104 88 83 115 85 87 72 68 65 87 112 123 163 183 190 202 204 183 173 156 147 156 155 154 151 153 167 167 173 173 175 179 181 182 187 184 184 189 191 189 186
65 73 83 78 68 90 96 114 120 75 79 103 143 181 174 161 167 150 140 139 143 142 148 147 151 142 135 142 152 168 182 168 167 181 185 184 187 172 184 186 188 186 179
71 66 70 83 63 54 45 52 92 92 79 125 208 161 130 137 145 158 155 157 150 145 148 146 148 141 148 158 163 166 91 94 191 158 187 188 185 173 185 185 184 185 196
50 51 54 56 66 66 61 66 51 42 76 37 54 42 69 92 131 142 152 157 161 151 156 153 143 148 148 160 161 122 127 138 150 205 192 184 177 175 185 199 181 207 191